Alexandria, LA

5:33 AM CDT on May 26, 2018 (GMT -0500)
Alexandria International

Weather History for KAEX - January, 2004

Change the Weather History Date:

Wednesday, January 14, 2004

  Actual Average Record
Temperature  
Mean Temperature 60 °F 49 °F  
Max Temperature 70 °F 59 °F 81 °F (1947)
Min Temperature 51 °F 39 °F 16 °F (1912)
Degree Days  
Heating Degree Days 4 16  
Month to date heating degree days 224  
Since 1 July heating degree days 1013  
Growing Degree Days 10 (Base 50)    
Moisture  
Dew Point 54 °F    
Average Humidity 90    
Maximum Humidity 100    
Minimum Humidity 63    
Precipitation  
Precipitation 0.00 in 0.14 in 1.43 in (1977)
Month to date precipitation 2.11  
Year to date precipitation 2.11  
Snow  
Snow 0.00 in - T in (1982)
Month to date snowfall  
Since 1 July snowfall  
Snow Depth -    
Sea Level Pressure  
Sea Level Pressure 30.16 in    
Wind  
Wind Speed 1 mph (WSW)    
Max Wind Speed 9 mph    
Max Gust Speed -    
Visibility 6 miles    
Events Fog , Thunderstorm    
T = Trace of Precipitation, MM = Missing Value Source: NWS Daily Summary

Daily Weather History Graph

Daily Weather History Graph

Search for Another Location

Airport or City:

Astronomy

Jan. 14, 2004 Rise Set
Actual Time 7:09 AM CST 5:28 PM CST
Civil Twilight 6:43 AM CST 5:54 PM CST
Nautical Twilight 6:13 AM CST 6:24 PM CST
Astronomical Twilight 5:44 AM CST 6:54 PM CST
Moon No Moon Rise 11:33 AM CST (1/14)
Length of Visible Light 11h 11m
Length of Day
10h 18m
Waning Gibbous, 55% of the Moon is Illuminated
Jan 14
Waning Gibbous
Jan 14
Last Quarter
Jan 21
New
Jan 29
First Quarter
Feb 6
Full

Hourly Weather History & Observations

Time (CST) Temp. Dew Point Humidity Pressure Visibility Wind Dir Wind Speed Gust Speed Precip Events Conditions
1:53 AM 57.0 °F 54.0 °F 89% 30.25 in 8.0 mi Calm Calm - N/A   Overcast
2:53 AM 55.0 °F 53.1 °F 93% 30.24 in 6.0 mi Calm Calm - N/A   Overcast
3:53 AM 55.0 °F 53.1 °F 93% 30.23 in 6.0 mi Calm Calm - N/A   Partly Cloudy
4:53 AM 53.1 °F 52.0 °F 96% 30.22 in 4.0 mi Calm Calm - N/A   Mostly Cloudy
5:00 AM 51.8 °F 51.8 °F 100% 30.21 in 1.8 mi Calm Calm - N/A   Mostly Cloudy
5:14 AM 53.6 °F 53.6 °F 100% 30.20 in 3.0 mi Calm Calm - N/A   Mostly Cloudy
5:37 AM 51.8 °F 51.8 °F 100% 30.20 in 1.8 mi Calm Calm - N/A   Partly Cloudy
5:46 AM 51.8 °F 51.8 °F 100% 30.20 in 0.5 mi Calm Calm - N/A Fog Fog
5:53 AM 52.0 °F 51.1 °F 97% 30.22 in 1.2 mi Calm Calm - N/A   Mostly Cloudy
6:03 AM 53.6 °F 51.8 °F 94% 30.21 in 5.0 mi Calm Calm - N/A   Mostly Cloudy
6:53 AM 51.1 °F 50.0 °F 96% 30.23 in 5.0 mi Calm Calm - N/A   Overcast
7:53 AM 53.1 °F 52.0 °F 96% 30.22 in 6.0 mi Calm Calm - N/A   Overcast
8:53 AM 55.9 °F 54.0 °F 93% 30.23 in 5.0 mi Calm Calm - N/A   Overcast
9:53 AM 59.0 °F 55.9 °F 90% 30.23 in 7.0 mi WSW 3.5 mph - N/A   Mostly Cloudy
10:53 AM 64.9 °F 57.0 °F 75% 30.23 in 10.0 mi WNW 4.6 mph - N/A   Clear
11:53 AM 69.1 °F 57.9 °F 68% 30.18 in 10.0 mi Variable 6.9 mph - N/A   Partly Cloudy
12:53 PM 69.1 °F 57.0 °F 65% 30.14 in 10.0 mi WSW 9.2 mph - N/A   Mostly Cloudy
2:53 PM 70.0 °F 57.0 °F 63% 30.09 in 10.0 mi WSW 9.2 mph - N/A   Scattered Clouds
3:53 PM 69.1 °F 57.0 °F 65% 30.09 in 10.0 mi WSW 9.2 mph - N/A   Mostly Cloudy
5:53 PM 63.0 °F 57.0 °F 81% 30.09 in 10.0 mi Calm Calm - N/A   Clear
6:53 PM 62.1 °F 55.9 °F 80% 30.11 in 10.0 mi Calm Calm - N/A   Clear
7:53 PM 61.0 °F 55.9 °F 83% 30.10 in 10.0 mi Calm Calm - N/A   Clear
8:53 PM 57.0 °F 55.0 °F 93% 30.11 in 8.0 mi Calm Calm - N/A   Clear
9:53 PM 54.0 °F 53.1 °F 97% 30.11 in 5.0 mi Calm Calm - N/A   Clear
10:32 PM 53.6 °F 53.6 °F 100% 30.10 in 1.5 mi Calm Calm - N/A   Clear
10:39 PM 51.8 °F 51.8 °F 100% 30.10 in 6.0 mi Calm Calm - N/A   Clear
10:53 PM 52.0 °F 52.0 °F 100% 30.11 in 6.0 mi Calm Calm - N/A   Clear
11:22 PM 51.8 °F 51.8 °F 100% 30.09 in 6.0 mi Calm Calm - N/A Thunderstorm Partly Cloudy
11:29 PM 53.6 °F 51.8 °F 94% 30.09 in 6.0 mi Calm Calm - N/A   Scattered Clouds
11:40 PM 53.6 °F 51.8 °F 94% 30.09 in 6.0 mi Calm Calm - N/A   Mostly Cloudy
11:53 PM 53.1 °F 52.0 °F 96% 30.11 in 6.0 mi Calm Calm - N/A   Scattered Clouds
11:59 PM 51.8 °F 50.0 °F 94% 30.09 in 0.8 mi Calm Calm - N/A   Mist